{"data":{"norad_id":64144,"epoch":"2026-05-24T23:57:19.348704Z","epoch_age_seconds":68530,"freshness":"FRESH","line1":"1 64144U 25111X   26144.99814061  .00011703  00000+0  43405-3 0  9994","line2":"2 64144  43.0032   6.9310 0000995 275.8297  84.2441 15.27585374 57131","mean_motion":15.27585374,"eccentricity":9.95e-5,"inclination_deg":43.0032,"raan_deg":6.931,"arg_perigee_deg":275.8297,"mean_anomaly_deg":84.2441,"bstar":0.00043405,"rev_number":5713,"period_min":94.266417086028,"perigee_km":482.3503179821,"apogee_km":483.71569081298,"semimajor_km":6861.1700043975,"source":"CELESTRAK","updated_at":"2026-05-25T13:38:20.300599Z"}}